星链-4296 (STARLINK-4296 )

导读 | 豆包AI

STARLINK-4296是美国SpaceX星链星座中的一颗互联网卫星,于2022年7月7日发射入轨,属于星链低轨卫星互联网组网的组成部分。卫星质量约297千克,采用平板设计展开后跨度约9米,运行在约550公里高度的近地轨道,运行速度约7.6千米每秒,轨道倾角约88.1度,为全球用户提供高速低延迟的宽带互联网服务。

Basic Information
目录编号:
52995
目录名称:
STARLINK-4296
国际标识:
2022-076K
轨道中心:
EARTH
卫星名称:
星链-4296
卫星全名:
星链-4296 (STARLINK-4296 )
卫星状态:
在轨 (已飞行1347 天)
发射日期:
2022-07-07 UTC
国别 :
美国 (US)
星等 :
--
Orbit Information
数据来源 国际轨道数据 AOE轨道数据
星历时间 2026-03-14T17:30:24+0800
17小时前
查看轨道信息
2026-03-12T05:00:00+0800
3天前
查看轨道信息
半长轴 6917.87km 6917.899km
偏心率 0.0001078 0.0002498
轨道倾角 53.218° 53.216°
近地点辐角 75.162° 100.325°
升交点赤经 72.989° 84.311°
平近点角 284.949° 238.094°
近地点 538.987km 538.033km
远地点 540.479km 541.491km
周期 95.437分钟 95.438分钟
每日圈数 15.088437 15.08834
Detailed Information
固有亮度:
5
最大亮度:
2.5
卫星平台:
Starlink v1.5
覆盖范围:
全球
运营商:
太空探索技术公司
运营商所在国:
美国
制造商(研发单位):
太空探索技术公司
制造商所在国:
美国
使用方式:
暂无
Satellite Introduction
星链(Starlink)计划是由太空探索技术公司(SpaceX)提出的一个巨型低轨卫星互联网星座项目,计划在2019年至2024年间在太空搭建由约1.2万颗卫星组成的“星链”网络,其中1584颗将部署在地球上空550千米处的近地轨道,并从2020年开始工作。该卫星仍在工作。
2D Orbit Map
3D Orbit Map
Orbit Altitude Analysis Chart
Orbit Inclination Analysis Chart
Orbit Comprehensive Analysis Chart
View Comprehensive Chart